Time,TemperatureF,DewpointF,PressureIn,WindDirection,WindDirectionDegrees,WindSpeedMPH,WindSpeedGustMPH,Humidity,HourlyPrecipIn,Conditions,Clouds,dailyrainin,SolarRadiationWatts/m^2,SoftwareType,DateUTC
2013-04-26 00:01:00,50.0,47.0,30.15,West,265,8.0,13.0,89,-99.99,,,-99.99,0.000000,,2013-04-26 07:01:00,
2013-04-26 00:11:00,49.0,46.0,30.15,West,267,10.0,13.0,89,-99.99,,,-99.99,0.000000,,2013-04-26 07:11:00,
2013-04-26 00:22:00,49.0,46.0,30.15,West,265,10.0,13.0,90,-99.99,,,-99.99,0.000000,,2013-04-26 07:22:00,
2013-04-26 00:31:00,49.0,46.0,30.14,West,273,12.0,13.0,90,-99.99,,,-99.99,0.000000,,2013-04-26 07:31:00,
2013-04-26 00:42:00,49.0,46.0,30.14,West,277,12.0,14.0,90,-99.99,,,-99.99,0.000000,,2013-04-26 07:42:00,
2013-04-26 00:50:00,49.0,47.0,30.15,West,280,12.0,13.0,92,-99.99,,,-99.99,0.000000,,2013-04-26 07:50:00,
2013-04-26 00:52:00,49.0,46.0,30.14,West,279,11.0,12.0,90,-99.99,,,-99.99,0.000000,,2013-04-26 07:52:00,
2013-04-26 01:02:00,49.0,46.0,30.15,West,280,12.0,13.0,90,-99.99,,,-99.99,0.000000,,2013-04-26 08:02:00,
2013-04-26 01:11:00,49.0,46.0,30.15,West,278,12.0,14.0,90,-99.99,,,-99.99,0.000000,,2013-04-26 08:11:00,
2013-04-26 01:21:00,49.0,46.0,30.15,West,275,12.0,14.0,90,-99.99,,,-99.99,0.000000,,2013-04-26 08:21:00,
2013-04-26 01:30:00,48.0,46.0,30.15,West,277,10.0,11.0,94,-99.99,,,-99.99,0.000000,,2013-04-26 08:30:00,
2013-04-26 01:31:00,49.0,47.0,30.15,West,279,12.0,13.0,91,-99.99,,,-99.99,0.000000,,2013-04-26 08:31:00,
2013-04-26 01:42:00,49.0,47.0,30.15,West,280,12.0,13.0,92,-99.99,,,-99.99,0.000000,,2013-04-26 08:42:00,
2013-04-26 01:50:00,49.0,47.0,30.15,West,277,12.0,16.0,93,-99.99,,,-99.99,0.000000,,2013-04-26 08:50:00,
2013-04-26 02:01:00,48.0,46.0,30.15,WNW,285,11.0,12.0,93,-99.99,,,-99.99,0.000000,,2013-04-26 09:01:00,
2013-04-26 02:11:00,48.0,46.0,30.15,WNW,285,10.0,12.0,94,-99.99,,,-99.99,0.000000,,2013-04-26 09:11:00,
2013-04-26 02:21:00,48.0,46.0,30.15,West,277,10.0,11.0,94,-99.99,,,-99.99,0.000000,,2013-04-26 09:21:00,
2013-04-26 02:30:00,48.0,46.0,30.14,West,273,13.0,15.0,94,-99.99,,,-99.99,0.000000,,2013-04-26 09:30:00,
2013-04-26 02:42:00,49.0,47.0,30.15,West,277,12.0,16.0,93,-99.99,,,-99.99,0.000000,,2013-04-26 09:42:00,
2013-04-26 03:12:00,48.0,46.0,30.14,West,276,13.0,17.0,94,-99.99,,,-99.99,0.000000,,2013-04-26 10:12:00,
2013-04-26 03:22:00,48.0,46.0,30.14,West,273,13.0,15.0,94,-99.99,,,-99.99,0.000000,,2013-04-26 10:22:00,
2013-04-26 03:30:00,48.0,46.0,30.15,West,262,9.0,17.0,93,-99.99,,,-99.99,0.000000,,2013-04-26 10:30:00,
2013-04-26 03:42:00,48.0,46.0,30.14,West,264,9.0,16.0,94,-99.99,,,-99.99,0.000000,,2013-04-26 10:42:00,
2013-04-26 03:52:00,48.0,46.0,30.14,West,273,12.0,16.0,93,-99.99,,,-99.99,0.000000,,2013-04-26 10:52:00,
2013-04-26 04:00:00,48.0,46.0,30.15,West,261,7.0,15.0,92,-99.99,,,-99.99,0.000000,,2013-04-26 11:00:00,
2013-04-26 04:02:00,48.0,46.0,30.14,West,271,12.0,16.0,94,-99.99,,,-99.99,0.000000,,2013-04-26 11:02:00,
2013-04-26 04:11:00,48.0,46.0,30.15,West,269,11.0,16.0,94,-99.99,,,-99.99,0.000000,,2013-04-26 11:11:00,
2013-04-26 04:22:00,48.0,46.0,30.15,West,262,9.0,17.0,93,-99.99,,,-99.99,0.000000,,2013-04-26 11:22:00,
2013-04-26 04:52:00,48.0,46.0,30.15,West,261,7.0,15.0,92,-99.99,,,-99.99,0.000000,,2013-04-26 11:52:00,
2013-04-26 05:11:00,48.0,46.0,30.16,West,261,7.0,16.0,92,-99.99,,,-99.99,0.000000,,2013-04-26 12:11:00,
2013-04-26 05:21:00,48.0,46.0,30.16,West,259,6.0,13.0,92,-99.99,,,-99.99,0.000000,,2013-04-26 12:21:00,
2013-04-26 05:32:00,47.0,45.0,30.16,West,260,6.0,14.0,92,-99.99,,,-99.99,0.000000,,2013-04-26 12:32:00,
2013-04-26 05:41:00,47.0,45.0,30.15,West,259,6.0,14.0,92,-99.99,,,-99.99,0.000000,,2013-04-26 12:41:00,
2013-04-26 05:52:00,47.0,45.0,30.16,WSW,258,7.0,15.0,93,-99.99,,,-99.99,0.000000,,2013-04-26 12:52:00,
2013-04-26 06:00:00,47.0,45.0,30.17,West,265,8.0,15.0,93,-99.99,,,-99.99,0.000000,,2013-04-26 13:00:00,
2013-04-26 06:01:00,47.0,45.0,30.16,West,261,7.0,15.0,93,-99.99,,,-99.99,0.000000,,2013-04-26 13:01:00,
2013-04-26 06:11:00,47.0,45.0,30.16,West,270,10.0,16.0,93,-99.99,,,-99.99,0.000000,,2013-04-26 13:11:00,
2013-04-26 06:21:00,47.0,45.0,30.16,West,260,7.0,14.0,93,-99.99,,,-99.99,0.000000,,2013-04-26 13:21:00,
2013-04-26 06:31:00,47.0,45.0,30.16,West,262,7.0,12.0,93,-99.99,,,-99.99,0.000000,,2013-04-26 13:31:00,
2013-04-26 06:41:00,47.0,45.0,30.17,WSW,257,6.0,12.0,93,-99.99,,,-99.99,0.000000,,2013-04-26 13:41:00,
2013-04-26 06:52:00,47.0,45.0,30.17,West,265,8.0,15.0,93,-99.99,,,-99.99,0.000000,,2013-04-26 13:52:00,
2013-04-26 07:11:00,47.0,45.0,30.17,West,274,12.0,15.0,94,-99.99,,,-99.99,0.000000,,2013-04-26 14:11:00,
2013-04-26 07:21:00,46.0,44.0,30.18,West,275,10.0,15.0,94,-99.99,,,-99.99,1.000000,,2013-04-26 14:21:00,
2013-04-26 07:32:00,46.0,44.0,30.18,West,265,7.0,15.0,94,-99.99,,,-99.99,3.000000,,2013-04-26 14:32:00,
2013-04-26 07:41:00,47.0,45.0,30.19,West,267,7.0,15.0,94,-99.99,,,-99.99,4.000000,,2013-04-26 14:41:00,
2013-04-26 07:51:00,47.0,45.0,30.20,West,265,7.0,15.0,94,-99.99,,,-99.99,7.000000,,2013-04-26 14:51:00,
2013-04-26 08:01:00,47.0,45.0,30.20,West,266,10.0,15.0,94,-99.99,,,-99.99,10.000000,,2013-04-26 15:01:00,
2013-04-26 08:10:00,47.0,45.0,30.22,West,268,6.0,13.0,94,-99.99,,,-99.99,37.000000,,2013-04-26 15:10:00,
2013-04-26 08:12:00,47.0,45.0,30.20,West,276,11.0,15.0,94,-99.99,,,-99.99,13.000000,,2013-04-26 15:12:00,
2013-04-26 08:21:00,47.0,45.0,30.20,West,277,10.0,16.0,94,-99.99,,,-99.99,18.000000,,2013-04-26 15:21:00,
2013-04-26 08:33:00,47.0,45.0,30.21,West,273,11.0,15.0,94,-99.99,,,-99.99,22.000000,,2013-04-26 15:33:00,
2013-04-26 08:42:00,47.0,46.0,30.21,West,270,9.0,14.0,94,-99.99,,,-99.99,25.000000,,2013-04-26 15:42:00,
2013-04-26 08:53:00,47.0,45.0,30.22,West,265,8.0,13.0,94,-99.99,,,-99.99,32.000000,,2013-04-26 15:53:00,
2013-04-26 09:03:00,47.0,45.0,30.22,West,268,6.0,13.0,94,-99.99,,,-99.99,37.000000,,2013-04-26 16:03:00,
2013-04-26 09:23:00,47.0,45.0,30.22,West,262,6.0,11.0,94,-99.99,,,-99.99,55.000000,,2013-04-26 16:23:00,
2013-04-26 09:33:00,47.0,45.0,30.22,West,274,8.0,15.0,94,-99.99,,,-99.99,59.000000,,2013-04-26 16:33:00,
2013-04-26 09:42:00,47.0,46.0,30.23,West,272,7.0,11.0,94,-99.99,,,-99.99,65.000000,,2013-04-26 16:42:00,
2013-04-26 09:50:00,48.0,46.0,30.24,WSW,255,4.0,11.0,93,-99.99,,,-99.99,113.000000,,2013-04-26 16:50:00,
2013-04-26 09:52:00,47.0,45.0,30.23,West,265,6.0,11.0,94,-99.99,,,-99.99,73.000000,,2013-04-26 16:52:00,
2013-04-26 10:02:00,47.0,45.0,30.23,West,267,8.0,12.0,94,-99.99,,,-99.99,76.000000,,2013-04-26 17:02:00,
2013-04-26 10:12:00,47.0,45.0,30.23,West,268,8.0,13.0,94,-99.99,,,-99.99,94.000000,,2013-04-26 17:12:00,
2013-04-26 10:21:00,47.0,45.0,30.24,West,264,7.0,12.0,94,-99.99,,,-99.99,91.000000,,2013-04-26 17:21:00,
2013-04-26 10:31:00,47.0,45.0,30.24,West,269,5.0,11.0,93,-99.99,,,-99.99,102.000000,,2013-04-26 17:31:00,
2013-04-26 10:41:00,48.0,46.0,30.24,WSW,255,4.0,11.0,93,-99.99,,,-99.99,113.000000,,2013-04-26 17:41:00,
2013-04-26 11:11:00,48.0,46.0,30.25,West,259,6.0,13.0,92,-99.99,,,-99.99,136.000000,,2013-04-26 18:11:00,
2013-04-26 11:22:00,48.0,46.0,30.26,WSW,254,6.0,12.0,91,-99.99,,,-99.99,157.000000,,2013-04-26 18:22:00,
2013-04-26 11:30:00,48.0,46.0,30.26,West,273,10.0,13.0,91,-99.99,,,-99.99,194.000000,,2013-04-26 18:30:00,
2013-04-26 11:33:00,48.0,45.0,30.26,WSW,246,3.0,9.0,90,-99.99,,,-99.99,163.000000,,2013-04-26 18:33:00,
2013-04-26 11:41:00,48.0,45.0,30.25,WSW,257,7.0,13.0,90,-99.99,,,-99.99,191.000000,,2013-04-26 18:41:00,
2013-04-26 11:52:00,48.0,45.0,30.26,West,268,10.0,13.0,90,-99.99,,,-99.99,186.000000,,2013-04-26 18:52:00,
2013-04-26 12:01:00,48.0,46.0,30.26,West,268,9.0,13.0,91,-99.99,,,-99.99,196.000000,,2013-04-26 19:01:00,
2013-04-26 12:11:00,48.0,45.0,30.26,West,269,9.0,13.0,90,-99.99,,,-99.99,202.000000,,2013-04-26 19:11:00,
2013-04-26 12:22:00,48.0,46.0,30.26,West,273,10.0,13.0,91,-99.99,,,-99.99,194.000000,,2013-04-26 19:22:00,
2013-04-26 12:50:00,48.0,46.0,30.26,West,280,12.0,14.0,91,-99.99,,,-99.99,314.000000,,2013-04-26 19:50:00,
2013-04-26 13:11:00,49.0,46.0,30.26,West,264,8.0,12.0,89,-99.99,,,-99.99,255.000000,,2013-04-26 20:11:00,
2013-04-26 13:21:00,48.0,45.0,30.26,West,274,11.0,13.0,90,-99.99,,,-99.99,275.000000,,2013-04-26 20:21:00,
2013-04-26 13:32:00,48.0,45.0,30.26,West,276,11.0,14.0,90,-99.99,,,-99.99,289.000000,,2013-04-26 20:32:00,
2013-04-26 13:42:00,48.0,46.0,30.26,West,280,12.0,14.0,91,-99.99,,,-99.99,314.000000,,2013-04-26 20:42:00,
2013-04-26 14:01:00,48.0,46.0,30.25,West,281,11.0,14.0,91,-99.99,,,-99.99,367.000000,,2013-04-26 21:01:00,
2013-04-26 14:11:00,48.0,46.0,30.25,West,281,13.0,16.0,92,-99.99,,,-99.99,384.000000,,2013-04-26 21:11:00,
2013-04-26 14:21:00,48.0,46.0,30.25,WNW,282,14.0,16.0,91,-99.99,,,-99.99,378.000000,,2013-04-26 21:21:00,
2013-04-26 14:32:00,48.0,46.0,30.25,West,279,13.0,15.0,91,-99.99,,,-99.99,386.000000,,2013-04-26 21:32:00,
2013-04-26 14:40:00,49.0,46.0,30.24,West,269,12.0,16.0,89,-99.99,,,-99.99,290.000000,,2013-04-26 21:40:00,
2013-04-26 14:42:00,49.0,46.0,30.25,West,276,11.0,14.0,91,-99.99,,,-99.99,355.000000,,2013-04-26 21:42:00,
2013-04-26 14:52:00,50.0,47.0,30.25,West,260,7.0,14.0,88,-99.99,,,-99.99,330.000000,,2013-04-26 21:52:00,
2013-04-26 15:02:00,50.0,46.0,30.25,WSW,254,6.0,14.0,86,-99.99,,,-99.99,325.000000,,2013-04-26 22:02:00,
2013-04-26 15:12:00,50.0,47.0,30.25,West,266,10.0,15.0,87,-99.99,,,-99.99,304.000000,,2013-04-26 22:12:00,
2013-04-26 15:22:00,49.0,46.0,30.25,West,270,13.0,16.0,89,-99.99,,,-99.99,321.000000,,2013-04-26 22:22:00,
2013-04-26 15:30:00,49.0,46.0,30.23,West,260,13.0,20.0,89,-99.99,,,-99.99,244.000000,,2013-04-26 22:30:00,
2013-04-26 15:33:00,49.0,46.0,30.24,West,269,12.0,16.0,89,-99.99,,,-99.99,290.000000,,2013-04-26 22:33:00,
2013-04-26 15:50:00,49.0,46.0,30.23,WSW,258,12.0,19.0,88,-99.99,,,-99.99,214.000000,,2013-04-26 22:50:00,
2013-04-26 16:10:00,49.0,46.0,30.23,WSW,258,12.0,23.0,89,-99.99,,,-99.99,210.000000,,2013-04-26 23:10:00,
2013-04-26 16:11:00,49.0,46.0,30.24,West,264,12.0,20.0,89,-99.99,,,-99.99,266.000000,,2013-04-26 23:11:00,
2013-04-26 16:21:00,49.0,46.0,30.23,West,260,13.0,20.0,89,-99.99,,,-99.99,244.000000,,2013-04-26 23:21:00,
2013-04-26 16:42:00,49.0,46.0,30.23,WSW,258,12.0,19.0,88,-99.99,,,-99.99,214.000000,,2013-04-26 23:42:00,
2013-04-26 16:50:00,48.0,45.0,30.22,West,260,13.0,22.0,90,-99.99,,,-99.99,178.000000,,2013-04-26 23:50:00,
2013-04-26 17:01:00,49.0,46.0,30.23,WSW,258,12.0,23.0,89,-99.99,,,-99.99,210.000000,,2013-04-27 00:01:00,
2013-04-26 17:21:00,49.0,46.0,30.22,West,262,14.0,20.0,89,-99.99,,,-99.99,176.000000,,2013-04-27 00:21:00,
2013-04-26 17:32:00,48.0,45.0,30.22,West,264,13.0,20.0,90,-99.99,,,-99.99,160.000000,,2013-04-27 00:32:00,
2013-04-26 17:40:00,48.0,46.0,30.21,West,265,14.0,21.0,92,-99.99,,,-99.99,71.000000,,2013-04-27 00:40:00,
2013-04-26 17:41:00,48.0,45.0,30.22,West,260,13.0,22.0,90,-99.99,,,-99.99,178.000000,,2013-04-27 00:41:00,
2013-04-26 18:01:00,48.0,45.0,30.22,West,260,14.0,22.0,90,-99.99,,,-99.99,135.000000,,2013-04-27 01:01:00,
2013-04-26 18:11:00,48.0,45.0,30.22,WSW,255,8.0,17.0,90,-99.99,,,-99.99,106.000000,,2013-04-27 01:11:00,
2013-04-26 18:21:00,48.0,45.0,30.22,West,264,14.0,19.0,91,-99.99,,,-99.99,91.000000,,2013-04-27 01:21:00,
2013-04-26 18:32:00,48.0,46.0,30.21,West,265,14.0,21.0,92,-99.99,,,-99.99,71.000000,,2013-04-27 01:32:00,
2013-04-26 18:52:00,48.0,46.0,30.21,West,263,15.0,22.0,92,-99.99,,,-99.99,59.000000,,2013-04-27 01:52:00,
2013-04-26 19:00:00,48.0,46.0,30.21,West,267,17.0,24.0,93,-99.99,,,-99.99,19.000000,,2013-04-27 02:00:00,
2013-04-26 19:01:00,48.0,46.0,30.21,West,263,12.0,24.0,92,-99.99,,,-99.99,54.000000,,2013-04-27 02:01:00,
2013-04-26 19:11:00,48.0,46.0,30.21,West,260,12.0,24.0,92,-99.99,,,-99.99,44.000000,,2013-04-27 02:11:00,
2013-04-26 19:20:00,47.0,45.0,30.21,West,267,16.0,24.0,94,-99.99,,,-99.99,11.000000,,2013-04-27 02:20:00,
2013-04-26 19:22:00,48.0,46.0,30.21,West,265,16.0,22.0,92,-99.99,,,-99.99,36.000000,,2013-04-27 02:22:00,
2013-04-26 19:32:00,48.0,46.0,30.21,West,266,16.0,23.0,93,-99.99,,,-99.99,27.000000,,2013-04-27 02:32:00,
2013-04-26 19:42:00,48.0,46.0,30.21,West,259,14.0,24.0,93,-99.99,,,-99.99,26.000000,,2013-04-27 02:42:00,
2013-04-26 19:52:00,48.0,46.0,30.21,West,267,17.0,24.0,93,-99.99,,,-99.99,19.000000,,2013-04-27 02:52:00,
2013-04-26 20:11:00,47.0,45.0,30.21,West,267,16.0,24.0,94,-99.99,,,-99.99,11.000000,,2013-04-27 03:11:00,
2013-04-26 20:32:00,47.0,46.0,30.20,West,264,16.0,24.0,95,-99.99,,,-99.99,5.000000,,2013-04-27 03:32:00,
2013-04-26 20:42:00,47.0,46.0,30.20,West,271,20.0,25.0,95,-99.99,,,-99.99,2.000000,,2013-04-27 03:42:00,
2013-04-26 20:52:00,47.0,46.0,30.20,West,266,16.0,25.0,95,-99.99,,,-99.99,1.000000,,2013-04-27 03:52:00,
2013-04-26 21:02:00,47.0,46.0,30.20,West,269,17.0,23.0,95,-99.99,,,-99.99,0.000000,,2013-04-27 04:02:00,
2013-04-26 21:10:00,46.0,45.0,30.21,West,271,20.0,25.0,96,-99.99,,,-99.99,0.000000,,2013-04-27 04:10:00,
2013-04-26 21:12:00,47.0,46.0,30.20,West,276,20.0,24.0,96,-99.99,,,-99.99,0.000000,,2013-04-27 04:12:00,
2013-04-26 21:22:00,47.0,46.0,30.21,West,267,16.0,23.0,96,-99.99,,,-99.99,0.000000,,2013-04-27 04:22:00,
2013-04-26 21:33:00,47.0,46.0,30.21,West,271,18.0,24.0,96,-99.99,,,-99.99,0.000000,,2013-04-27 04:33:00,
2013-04-26 21:43:00,47.0,46.0,30.21,West,268,17.0,26.0,96,-99.99,,,-99.99,0.000000,,2013-04-27 04:43:00,
2013-04-26 21:52:00,46.0,45.0,30.21,West,272,20.0,26.0,96,-99.99,,,-99.99,0.000000,,2013-04-27 04:52:00,
2013-04-26 22:02:00,46.0,45.0,30.21,West,271,20.0,25.0,96,-99.99,,,-99.99,0.000000,,2013-04-27 05:02:00,
2013-04-26 22:22:00,47.0,46.0,30.22,West,263,15.0,25.0,97,-99.99,,,-99.99,0.000000,,2013-04-27 05:22:00,
2013-04-26 22:32:00,47.0,46.0,30.22,West,260,12.0,22.0,97,-99.99,,,-99.99,0.000000,,2013-04-27 05:32:00,
2013-04-26 22:42:00,46.0,45.0,30.23,West,265,16.0,22.0,97,-99.99,,,-99.99,0.000000,,2013-04-27 05:42:00,
2013-04-26 22:52:00,46.0,45.0,30.23,West,265,16.0,25.0,97,-99.99,,,-99.99,0.000000,,2013-04-27 05:52:00,
2013-04-26 23:01:00,46.0,45.0,30.23,West,266,17.0,24.0,97,-99.99,,,-99.99,0.000000,,2013-04-27 06:01:00,
2013-04-26 23:12:00,46.0,45.0,30.23,West,263,13.0,23.0,97,-99.99,,,-99.99,0.000000,,2013-04-27 06:12:00,
2013-04-26 23:22:00,46.0,45.0,30.23,West,265,15.0,26.0,97,-99.99,,,-99.99,0.000000,,2013-04-27 06:22:00,
2013-04-26 23:32:00,46.0,45.0,30.23,WSW,252,10.0,22.0,97,-99.99,,,-99.99,0.000000,,2013-04-27 06:32:00,
2013-04-26 23:41:00,46.0,45.0,30.23,WSW,255,9.0,18.0,97,-99.99,,,-99.99,0.000000,,2013-04-27 06:41:00,
2013-04-26 23:50:00,46.0,46.0,30.23,West,266,11.0,24.0,98,-99.99,,,-99.99,0.000000,,2013-04-27 06:50:00,
2013-04-26 23:51:00,46.0,45.0,30.23,West,267,16.0,23.0,97,-99.99,,,-99.99,0.000000,,2013-04-27 06:51:00,